[[[{"header":{"parameterUnit":"kt","parameterCategory":2,"dx":1,"dy":1,"la1":30.253999710083008,"la2":30.299108505249023,"lo1":-89.0895004272461,"lo2":-89.04439544677734,"nx":28,"ny":28,"refTime":"2022-10-02T21:00:00:Z","depth":0,"parameterNumber":1,"parameterNumberName":"U-component_of_WINDS"},"data":[3.2647,3.2783,3.2815,3.2987,3.3045,3.317,3.3225,3.33,3.3368,3.3524,3.3619,3.3667,3.3751,3.3876,3.3984,3.4004,3.405,3.4076,3.4096,3.3943,3.3924,3.3907,3.3876,3.4084,3.4084,3.4251,3.4252,3.4254,3.2538,3.2595,3.2694,3.2811,3.2898,3.2891,3.2985,3.3059,3.3172,3.3256,3.3351,3.3491,3.3607,3.3683,3.3801,3.3871,3.3877,3.3902,3.3899,3.3914,3.3751,3.3718,3.3895,3.3895,3.3895,3.3895,3.3895,3.3895,3.235,3.243,3.2518,3.2626,3.2693,3.2772,3.2855,3.291,3.3009,3.3132,3.315,3.328,3.3372,3.353,3.3591,3.3696,3.3675,3.3713,3.3724,3.3734,3.3742,3.3506,3.3716,3.3716,3.3716,3.3715,3.3715,0,3.2223,3.2243,3.2338,3.2444,3.2524,3.261,3.2693,3.2746,3.28,3.288,3.2999,3.3074,3.3222,3.334,3.3457,3.3514,3.352,3.3522,3.3549,3.3545,3.3527,3.3544,3.3282,3.3516,3.3515,3.3514,3.3513,3.3512,3.204,3.2127,3.2233,3.2296,3.2349,3.245,3.2518,3.2558,3.2629,3.274,3.2811,3.2927,3.3023,3.3211,3.3277,3.339,3.3394,3.3481,3.3411,3.3403,3.3403,3.3399,3.3411,3.3495,3.3498,3.3499,3.3501,0,3.1936,3.1983,3.2128,3.2224,3.2251,3.2342,3.2426,3.2508,3.2552,3.2672,3.2703,3.2773,3.289,3.2942,3.3086,3.3111,3.3272,3.327,3.3241,3.3246,3.3333,3.3326,3.3596,3.3636,3.3415,3.3417,3.3419,0,3.1801,3.1913,3.1979,3.2061,3.2189,3.2226,3.2353,3.2403,3.2479,3.2574,3.2585,3.2674,3.2725,3.2824,3.286,3.2999,3.3025,3.3054,3.3063,3.3056,3.3053,3.3098,3.309,3.3072,3.3071,3.307,3.3068,0,3.1635,3.18,3.1932,3.1978,3.2091,3.2153,3.2203,3.2288,3.2354,3.2448,3.2492,3.2598,3.2658,3.2743,3.2788,3.2739,3.2957,3.29,3.2988,3.2987,3.3036,3.3033,3.3256,3.3067,3.3066,3.3066,3.3065,0,3.1535,3.1624,3.1806,3.1901,3.1943,3.203,3.2136,3.2221,3.2311,3.2338,3.2412,3.2426,3.2547,3.2487,3.2657,3.2582,3.2641,3.2678,3.2686,3.2704,3.2636,3.2761,3.2963,3.2989,3.2716,3.2714,3.2711,0,3.1336,3.153,3.1562,3.1734,3.1831,3.1837,3.1934,3.2011,3.2055,3.2146,3.2195,3.23,3.2265,3.2305,3.2382,3.2438,3.2536,3.2426,3.2567,3.2572,3.2547,3.2733,3.2752,3.2912,3.2674,3.2678,3.2681,0,3.1187,3.1319,3.1347,3.1402,3.1505,3.1586,3.1697,3.1806,3.1866,3.1949,3.2047,3.2191,3.2174,3.2238,3.226,3.2338,3.2471,3.2308,3.2311,3.234,3.2657,3.2676,3.2703,3.247,3.2474,3.2478,3.2651,0,3.1035,3.1135,3.1211,3.1326,3.1395,3.1503,3.1553,3.162,3.1634,3.1676,3.1818,3.1893,3.2007,3.2047,3.2061,3.2219,3.2202,3.218,3.2129,3.2247,3.2307,3.233,3.2037,3.2035,3.2034,3.2034,0,0,3.0835,3.098,3.1009,3.1115,3.1176,3.1178,3.129,3.1349,3.1469,3.1513,3.1483,3.1699,3.1761,3.1929,3.1969,3.2013,3.2049,3.2004,3.2189,3.2206,3.2222,3.2284,3.2308,3.2032,3.2031,3.2031,3.2031,0,3.079,3.0846,3.0953,3.1015,3.1108,3.1146,3.1171,3.1264,3.1297,3.1432,3.1435,3.1526,3.1694,3.1762,3.1819,3.1984,3.1983,3.2014,3.2087,3.2176,3.2195,3.2211,3.2276,3.2298,3.2028,3.2028,3.2028,0,3.0656,3.0722,3.0777,3.0909,3.097,3.1068,3.1025,3.1129,3.1204,3.1203,3.1337,3.1386,3.148,3.1628,3.1697,3.1673,3.1922,3.1849,3.1857,3.1867,3.1957,3.1979,3.1998,3.174,3.1739,3.1738,0,0,3.0611,3.0702,3.0785,3.0903,3.0941,3.0998,3.1054,3.1073,3.1154,3.1186,3.1248,3.1329,3.1429,3.1493,3.1589,3.1743,3.1769,3.1812,3.1825,3.1836,3.1852,3.1944,3.1966,3.1733,3.1733,3.1733,0,0,3.059,3.0689,3.0687,3.0829,3.0905,3.0996,3.1068,3.1069,3.1158,3.1151,3.119,3.1213,3.1352,3.14,3.1333,3.1572,3.1519,3.1536,3.1536,3.1554,3.1567,3.1555,3.1301,0,0,0,0,0,3.0567,3.0677,3.0673,3.0704,3.0871,3.0997,3.1019,3.1051,3.1014,3.1071,3.1124,3.1117,3.1372,3.1314,3.1346,3.1421,3.1674,3.1685,3.1695,3.1731,3.1749,3.1764,0,0,0,0,0,0,3.058,3.0617,3.0671,3.0765,3.0803,3.0993,3.0938,3.095,3.1009,3.1006,3.1107,3.112,3.1152,3.13,3.1328,3.1399,3.1292,3.1678,3.1687,3.1695,3.1737,3.1752,3.1765,0,0,0,0,0,3.059,3.062,3.0878,3.0764,3.0797,3.0866,3.0934,3.0943,3.099,3.107,3.1083,3.1009,3.1153,3.1179,3.1317,3.1385,3.1272,3.1283,3.1684,3.1691,3.1697,3.1744,0,0,0,0,0,0,3.0597,3.0631,3.0885,3.0897,3.0724,3.0856,3.0878,3.0938,3.1052,3.1065,3.0974,3.097,3.1155,3.1175,3.1195,3.1379,3.1257,3.1267,3.1274,3.169,3.1695,3.17,0,0,0,0,0,0,3.0615,3.0641,3.0891,3.0839,3.0844,3.0847,3.0866,3.0987,3.1053,3.0949,3.0949,3.0971,3.1126,3.1172,3.1188,3.1376,3.1245,3.1255,3.1262,3.1266,3.1694,3.1698,0,0,0,0,0,0,3.0626,3.0648,3.0836,3.084,3.0845,3.0976,3.0955,3.1125,3.1005,3.0944,3.0995,3.0991,3.1124,3.114,3.1183,3.1364,3.1373,3.1245,3.1252,3.1257,3.126,0,0,0,0,0,0,0,3.0636,3.048,3.0817,3.0842,3.0846,3.1002,3.1005,3.1008,3.1004,3.1,3.0996,3.0993,3.1187,3.1198,3.1209,3.1355,0,0,3.1244,3.1249,0,0,0,0,0,0,0,0,3.0471,3.0478,3.0818,3.082,3.0822,3.1002,3.1005,3.1008,3.1003,3.1,3.0997,3.0994,3.119,3.1199,3.1208,0,0,0,0,0,0,0,0,0,0,0,0,0,0,0,3.0818,3.082,0,3.1003,3.1005,3.1007,3.1003,3.1,3.0998,3.0995,3.1192,3.12,3.1207,0,0,0,0,0,0,0,0,0,0,0,0,0,0,0,0,0,0,0,0,0,0,0,0,0,0,0,0,0,0,0,0,0,0,0,0,0,0,0,0,0,0,0,0,0,0,0,0,0,0,0,0,0,0,0,0,0,0,0,0,0,0,0,0,0,0,0,0,0]}],[{"header":{"parameterUnit":"kt","parameterCategory":2,"dx":1,"dy":1,"la1":30.253999710083008,"la2":30.299108505249023,"lo1":-89.0895004272461,"lo2":-89.04439544677734,"nx":28,"ny":28,"refTime":"2022-10-02T21:00:00:Z","depth":0,"parameterNumber":2,"parameterNumberName":"V-component_of_WINDS"},"data":[-4.7772,-4.7668,-4.7725,-4.7632,-4.7667,-4.7612,-4.7609,-4.7612,-4.7627,-4.7565,-4.7538,-4.758,-4.7614,-4.7592,-4.7563,-4.7582,-4.7564,-4.7489,-4.7523,-4.7816,-4.7859,-4.7901,-4.793,-4.7485,-4.7485,-4.721,-4.7208,-4.7206,-4.7988,-4.8023,-4.799,-4.7996,-4.7968,-4.8077,-4.8088,-4.8056,-4.8002,-4.8019,-4.7996,-4.7943,-4.7907,-4.7966,-4.7939,-4.7889,-4.7934,-4.7877,-4.7879,-4.7882,-4.8198,-4.8229,-4.7841,-4.7841,-4.7841,-4.7841,-4.7841,-4.7841,-4.8396,-4.8331,-4.8368,-4.8333,-4.8351,-4.8353,-4.83,-4.8356,-4.8321,-4.8303,-4.8374,-4.8311,-4.8335,-4.8327,-4.8337,-4.8287,-4.8359,-4.8311,-4.8298,-4.8283,-4.826,-4.8648,-4.8285,-4.8287,-4.8288,-4.8289,-4.829,0,-4.871,-4.8763,-4.8735,-4.8723,-4.87,-4.8695,-4.8698,-4.8667,-4.879,-4.8755,-4.8709,-4.8691,-4.8653,-4.8612,-4.8598,-4.8617,-4.8717,-4.8734,-4.8701,-4.8663,-4.8634,-4.8646,-4.9157,-4.8742,-4.8746,-4.8749,-4.8751,-4.8753,-4.9123,-4.904,-4.9105,-4.9078,-4.9094,-4.9046,-4.9029,-4.9144,-4.9119,-4.9138,-4.9072,-4.9035,-4.901,-4.8922,-4.898,-4.8949,-4.8996,-4.8833,-4.8991,-4.8963,-4.899,-4.8993,-4.8984,-4.8797,-4.8791,-4.8786,-4.8783,0,-4.9349,-4.9442,-4.9331,-4.9402,-4.9417,-4.9323,-4.9382,-4.9319,-4.9379,-4.93,-4.9288,-4.9377,-4.9326,-4.9413,-4.937,-4.9416,-4.9256,-4.9305,-4.9251,-4.9264,-4.9123,-4.9134,-4.8658,-4.8601,-4.9067,-4.9062,-4.9058,0,-4.9735,-4.962,-4.9765,-4.9695,-4.9572,-4.9692,-4.9566,-4.9604,-4.9628,-4.9567,-4.97,-4.9638,-4.9758,-4.9708,-4.9775,-4.9661,-4.9653,-4.968,-4.9698,-4.9665,-4.9661,-4.9646,-4.9666,-4.9746,-4.9748,-4.975,-4.9752,0,-5.0076,-5.0019,-4.9908,-4.9909,-4.997,-4.9914,-4.9935,-4.9963,-4.9942,-4.9929,-4.9916,-4.9891,-4.9875,-4.9852,-4.9938,-5.0042,-4.9801,-4.9962,-4.9827,-4.9824,-4.9763,-4.9765,-4.9328,-4.9755,-4.9755,-4.9756,-4.9757,0,-5.04,-5.039,-5.0214,-5.0269,-5.0248,-5.0173,-5.0159,-5.0115,-5.0133,-5.0172,-5.0162,-5.0257,-5.0166,-5.0321,-5.0196,-5.0308,-5.0284,-5.0302,-5.0294,-5.0286,-5.0454,-5.0192,-4.9771,-4.9728,-5.0286,-5.0291,-5.0295,0,-5.0765,-5.0612,-5.0715,-5.0543,-5.0484,-5.064,-5.0558,-5.057,-5.0616,-5.057,-5.062,-5.0563,-5.0697,-5.069,-5.0618,-5.0663,-5.0518,-5.0687,-5.061,-5.0606,-5.0599,-5.0214,-5.0128,-4.9855,-5.0353,-5.0346,-5.0342,0,-5.1058,-5.1135,-5.1097,-5.1103,-5.1141,-5.1091,-5.0997,-5.0971,-5.0935,-5.0933,-5.0854,-5.0778,-5.0876,-5.0862,-5.0936,-5.0855,-5.062,-5.0969,-5.097,-5.09,-5.0389,-5.0309,-5.0262,-5.0687,-5.068,-5.0675,-5.0388,0,-5.1521,-5.1457,-5.136,-5.1365,-5.1342,-5.1238,-5.1334,-5.1295,-5.1372,-5.1421,-5.1307,-5.1335,-5.13,-5.1272,-5.1342,-5.1132,-5.1178,-5.1281,-5.1431,-5.118,-5.1087,-5.1049,-5.1563,-5.1568,-5.1572,-5.1576,0,0,-5.1845,-5.1754,-5.1867,-5.1782,-5.1768,-5.1928,-5.1809,-5.1813,-5.1814,-5.18,-5.1887,-5.1781,-5.1797,-5.1647,-5.1576,-5.1562,-5.1531,-5.1614,-5.13,-5.1268,-5.124,-5.1139,-5.1099,-5.1583,-5.1585,-5.1586,-5.1587,0,-5.2034,-5.2057,-5.1941,-5.1952,-5.1973,-5.2032,-5.2004,-5.2049,-5.2074,-5.1964,-5.2092,-5.2033,-5.1943,-5.1944,-5.1932,-5.1637,-5.1732,-5.162,-5.1431,-5.1339,-5.1302,-5.127,-5.1163,-5.1124,-5.1598,-5.1597,-5.1597,0,-5.2337,-5.2375,-5.2329,-5.2307,-5.232,-5.2253,-5.2439,-5.236,-5.231,-5.248,-5.2367,-5.2392,-5.24,-5.2247,-5.2181,-5.2256,-5.191,-5.2035,-5.2011,-5.2003,-5.1918,-5.1873,-5.1834,-5.2352,-5.2354,-5.2356,0,0,-5.2486,-5.2427,-5.2499,-5.2354,-5.2354,-5.244,-5.2413,-5.2485,-5.2493,-5.2494,-5.2529,-5.2528,-5.2478,-5.244,-5.2397,-5.2215,-5.2224,-5.2124,-5.2089,-5.2059,-5.2035,-5.1942,-5.1898,-5.2365,-5.2365,-5.2365,0,0,-5.2555,-5.2636,-5.2713,-5.2557,-5.2563,-5.262,-5.2526,-5.262,-5.2591,-5.2612,-5.2724,-5.2729,-5.2587,-5.2605,-5.2711,-5.2451,-5.2599,-5.2576,-5.2443,-5.24,-5.2365,-5.2361,-5.2897,0,0,0,0,0,-5.2795,-5.2628,-5.2696,-5.2685,-5.2653,-5.2584,-5.258,-5.2673,-5.2778,-5.2702,-5.2746,-5.285,-5.2686,-5.2783,-5.2766,-5.2645,-5.2476,-5.2456,-5.2438,-5.2225,-5.2178,-5.2139,0,0,0,0,0,0,-5.2792,-5.2777,-5.2701,-5.275,-5.2745,-5.2591,-5.2789,-5.281,-5.2788,-5.2811,-5.2839,-5.2851,-5.2925,-5.2797,-5.2781,-5.2664,-5.2903,-5.2468,-5.2451,-5.2436,-5.2209,-5.2171,-5.2138,0,0,0,0,0,-5.2789,-5.2777,-5.2703,-5.2754,-5.2748,-5.2832,-5.2796,-5.2815,-5.2799,-5.2866,-5.2882,-5.2871,-5.2919,-5.2912,-5.2788,-5.2669,-5.2915,-5.2909,-5.2457,-5.2444,-5.2432,-5.219,0,0,0,0,0,0,-5.2787,-5.2792,-5.2704,-5.2706,-5.2824,-5.2843,-5.2849,-5.2818,-5.2858,-5.2872,-5.2904,-5.2921,-5.2913,-5.2909,-5.2902,-5.2666,-5.2925,-5.2918,-5.2914,-5.2447,-5.2437,-5.2428,0,0,0,0,0,0,-5.2799,-5.2792,-5.2705,-5.2789,-5.2802,-5.2852,-5.2857,-5.2764,-5.2856,-5.2894,-5.291,-5.2911,-5.2921,-5.2905,-5.2901,-5.2751,-5.2932,-5.2926,-5.2922,-5.2919,-5.2439,-5.2431,0,0,0,0,0,0,-5.2798,-5.2792,-5.279,-5.2799,-5.281,-5.2835,-5.277,-5.2731,-5.2933,-5.289,-5.2954,-5.2963,-5.2914,-5.2912,-5.2899,-5.275,-5.2751,-5.2932,-5.2928,-5.2925,-5.2923,0,0,0,0,0,0,0,-5.2797,-5.2815,-5.2695,-5.2806,-5.2817,-5.2722,-5.2722,-5.2723,-5.2936,-5.2944,-5.2952,-5.2959,-5.2968,-5.2961,-5.2954,-5.275,0,0,-5.2933,-5.293,0,0,0,0,0,0,0,0,-5.2819,-5.2816,-5.2695,-5.2695,-5.2696,-5.2722,-5.2722,-5.2722,-5.2937,-5.2943,-5.295,-5.2956,-5.2966,-5.2961,-5.2955,0,0,0,0,0,0,0,0,0,0,0,0,0,0,0,-5.2695,-5.2695,0,-5.2722,-5.2722,-5.2722,-5.2938,-5.2943,-5.2949,-5.2954,-5.2965,-5.296,-5.2956,0,0,0,0,0,0,0,0,0,0,0,0,0,0,0,0,0,0,0,0,0,0,0,0,0,0,0,0,0,0,0,0,0,0,0,0,0,0,0,0,0,0,0,0,0,0,0,0,0,0,0,0,0,0,0,0,0,0,0,0,0,0,0,0,0,0,0,0,0]}]]]